Le nostre stazioni meteo in Italia

Pubblicità
Il mio iltempo24.it
Casale Monferrato, Italia (16068): Temperatura & dewpoint: 13.05.2019 21:00:00 - 19.05.2019 21:00:00 (CEST)Casale Monferrato, Italia (16068): velocità del vento: 13.05.2019 21:00:00 - 19.05.2019 21:00:00 (CEST)Casale Monferrato, Italia (16068): direzione del vento: 13.05.2019 21:00:00 - 19.05.2019 21:00:00 (CEST)Casale Monferrato, Italia (16068): reduced air pressure: 13.05.2019 21:00:00 - 19.05.2019 21:00:00 (CEST)Casale Monferrato, Italia (16068): precipitazioni: 13.05.2019 21:00:00 - 19.05.2019 21:00:00 (CEST)
Data & Tempo tt [°C] td [°C] ff [km/h] ff [kn] dd ppp [hPa] rr [mm]
19.05.2019 21:00:00 - - - - - - -
19.05.2019 20:00:00 14,6 13,1 4 2 E 1005,1 -
19.05.2019 19:00:00 14,6 13,1 5 3 E 1005,0 -
19.05.2019 18:00:00 14,7 13,4 8 4 ESE 1005,0 -
19.05.2019 17:00:00 15,0 13,3 8 4 ENE 1004,9 -
19.05.2019 16:00:00 14,8 13,1 5 3 NE 1005,0 -
19.05.2019 15:00:00 14,1 12,5 9 5 NE 1005,1 -
19.05.2019 14:00:00 14,1 12,6 8 4 NNE 1005,0 -
19.05.2019 13:00:00 13,7 12,2 5 3 NNO 1005,1 -
19.05.2019 12:00:00 13,2 11,9 9 5 N 1005,2 -
19.05.2019 11:00:00 12,8 11,5 8 4 NNO 1005,3 -
19.05.2019 10:00:00 12,4 11,3 5 3 N 1005,2 -
19.05.2019 09:00:00 12,1 11,0 4 2 NNO 1005,1 -
19.05.2019 08:00:00 11,6 10,5 4 2 NO 1005,0 -
19.05.2019 07:00:00 11,5 10,4 0 0 N 1005,0 -
19.05.2019 06:00:00 11,6 10,5 0 0 N 1005,2 -
19.05.2019 05:00:00 11,6 10,5 0 0 N 1005,5 -
19.05.2019 04:00:00 11,7 10,6 0 0 N 1006,0 -
19.05.2019 03:00:00 11,7 10,6 2 1 ENE 1006,5 -
19.05.2019 02:00:00 11,7 10,6 5 3 O 1006,4 -
19.05.2019 01:00:00 11,6 10,5 8 4 OSO 1007,0 -
19.05.2019 00:00:00 11,8 10,5 4 2 OSO 1007,4 -
18.05.2019 23:00:00 11,8 10,5 4 2 OSO 1007,5 -
18.05.2019 22:00:00 12,0 10,7 2 1 O 1007,7 -
18.05.2019 21:00:00 11,9 10,6 9 5 NO 1007,7 -
18.05.2019 20:00:00 12,4 11,1 8 4 NO 1007,5 -
18.05.2019 19:00:00 12,5 11,4 8 4 NO 1007,3 -
18.05.2019 18:00:00 12,6 11,3 9 5 NO 1007,2 -
18.05.2019 17:00:00 12,7 11,4 9 5 NO 1007,1 -
18.05.2019 16:00:00 12,9 11,5 9 5 NNO 1007,2 -
18.05.2019 15:00:00 12,6 11,3 13 7 NNO 1007,4 -
18.05.2019 14:00:00 12,4 11,1 9 5 N 1007,6 -
18.05.2019 13:00:00 12,0 10,9 11 6 N 1007,8 -
18.05.2019 12:00:00 11,8 10,7 11 6 N 1007,7 -
18.05.2019 11:00:00 11,9 10,8 15 8 N 1007,8 -
18.05.2019 10:00:00 11,5 10,4 13 7 N 1007,8 -
18.05.2019 09:00:00 11,4 10,3 11 6 N 1007,6 -
18.05.2019 08:00:00 11,2 10,1 8 4 N 1007,5 -
18.05.2019 07:00:00 11,2 10,1 8 4 NNE 1007,4 -
18.05.2019 06:00:00 11,3 10,2 9 5 N 1007,3 -
18.05.2019 05:00:00 11,5 10,4 9 5 N 1007,7 -
18.05.2019 04:00:00 11,6 10,5 11 6 N 1007,9 -
18.05.2019 03:00:00 11,6 10,5 8 4 NNE 1008,7 -
18.05.2019 02:00:00 11,4 10,3 13 7 N 1008,5 -
18.05.2019 01:00:00 11,6 10,5 9 5 NNO 1009,0 -
18.05.2019 00:00:00 11,9 10,8 8 4 N 1009,3 -
17.05.2019 23:00:00 11,7 10,6 8 4 NO 1009,3 -
17.05.2019 22:00:00 11,9 10,8 15 8 N 1008,9 -
17.05.2019 21:00:00 12,2 10,9 4 2 NNO 1009,3 -
17.05.2019 20:00:00 12,7 11,3 5 3 NO 1009,0 -
17.05.2019 19:00:00 13,8 12,2 4 2 NNO 1008,9 -
17.05.2019 18:00:00 14,6 12,4 11 6 NNO 1009,0 -
17.05.2019 17:00:00 15,6 11,3 9 5 NNO 1009,0 -
17.05.2019 16:00:00 16,1 10,1 11 6 ONO 1009,4 -
17.05.2019 15:00:00 17,0 9,6 5 3 ENE 1009,3 -
17.05.2019 14:00:00 16,8 9,4 9 5 NNE 1009,4 -
17.05.2019 13:00:00 16,2 9,6 9 5 ENE 1009,6 -
17.05.2019 12:00:00 15,7 10,2 11 6 ENE 1009,4 -
17.05.2019 11:00:00 15,3 11,8 11 6 NE 1009,2 -
17.05.2019 10:00:00 13,9 11,2 9 5 ENE 1009,6 -
17.05.2019 09:00:00 12,5 10,9 5 3 NNE 1009,8 -
17.05.2019 08:00:00 11,8 10,2 2 1 NNE 1009,7 -
17.05.2019 07:00:00 10,9 9,5 4 2 NE 1009,5 -
17.05.2019 06:00:00 10,5 8,9 4 2 O 1009,3 -
17.05.2019 05:00:00 10,3 8,7 0 0 N 1009,7 -
17.05.2019 04:00:00 10,4 8,8 0 0 N 1009,5 -
17.05.2019 03:00:00 10,7 9,1 4 2 OSO 1009,8 -
17.05.2019 02:00:00 10,3 8,2 0 0 N 1010,3 -
17.05.2019 01:00:00 11,7 8,9 0 0 N 1010,3 -
17.05.2019 00:00:00 12,7 8,5 0 0 N 1010,4 -
16.05.2019 23:00:00 14,6 9,4 0 0 N 1010,5 -
16.05.2019 22:00:00 15,1 9,6 2 1 S 1010,0 -
16.05.2019 21:00:00 16,4 9,0 9 5 E 1009,5 -
16.05.2019 20:00:00 18,7 8,9 8 4 E 1009,3 -
16.05.2019 19:00:00 19,9 9,1 2 1 SE 1009,0 -
16.05.2019 18:00:00 20,2 8,1 9 5 ESE 1009,4 -
16.05.2019 17:00:00 20,3 8,2 9 5 E 1009,4 -
16.05.2019 16:00:00 - - - - - - -
16.05.2019 15:00:00 18,8 8,1 8 4 NE 1010,7 -
16.05.2019 14:00:00 18,1 8,0 8 4 NE 1011,4 -
16.05.2019 13:00:00 17,6 7,8 9 5 S 1011,8 -
16.05.2019 12:00:00 16,9 8,0 5 3 NE 1012,6 -
16.05.2019 11:00:00 16,0 9,1 5 3 E 1013,0 -
16.05.2019 10:00:00 14,4 8,7 4 2 N 1013,3 -
16.05.2019 09:00:00 13,3 8,1 0 0 N 1013,6 -
16.05.2019 08:00:00 10,6 9,3 0 0 N 1013,8 0,0
16.05.2019 07:00:00 5,9 4,5 2 1 SO 1014,1 -
16.05.2019 06:00:00 5,8 4,3 0 0 N 1014,2 -
16.05.2019 05:00:00 5,9 4,4 2 1 O 1014,3 -
16.05.2019 04:00:00 6,4 4,9 0 0 N 1014,7 -
16.05.2019 03:00:00 6,8 5,3 5 3 OSO 1014,9 -
16.05.2019 02:00:00 7,2 5,3 4 2 O 1015,4 -
16.05.2019 01:00:00 7,8 5,1 4 2 ONO 1016,0 -
16.05.2019 00:00:00 9,7 5,8 4 2 N 1016,2 -
15.05.2019 23:00:00 10,7 6,2 5 3 N 1015,9 -
15.05.2019 22:00:00 10,6 5,7 5 3 NE 1015,5 -
15.05.2019 21:00:00 11,9 5,2 9 5 E 1014,9 -
15.05.2019 20:00:00 13,9 5,9 11 6 ESE 1014,3 -
15.05.2019 19:00:00 14,6 5,3 13 7 SE 1014,2 -
15.05.2019 18:00:00 15,4 4,9 13 7 SE 1014,2 -
15.05.2019 17:00:00 15,2 6,1 18 10 ESE 1014,4 -
15.05.2019 16:00:00 - - - - - - -
15.05.2019 15:00:00 16,9 4,2 15 8 SE 1013,9 -
15.05.2019 14:00:00 16,9 6,3 13 7 SSE 1013,8 -
15.05.2019 13:00:00 16,4 1,6 9 5 ESE 1014,2 -
15.05.2019 12:00:00 15,3 2,4 8 4 ESE 1014,4 -
15.05.2019 11:00:00 14,3 4,2 5 3 NNO 1014,6 -
15.05.2019 10:00:00 13,5 6,8 5 3 SE 1014,7 -
15.05.2019 09:00:00 12,2 7,0 5 3 ESE 1014,8 -
15.05.2019 08:00:00 10,8 8,3 0 0 N 1014,9 -
15.05.2019 07:00:00 7,1 5,2 2 1 OSO 1015,3 -
15.05.2019 06:00:00 7,7 4,6 2 1 O 1015,4 -
15.05.2019 05:00:00 9,1 4,7 2 1 NNO 1015,8 -
15.05.2019 04:00:00 10,0 5,1 5 3 N 1016,0 -
15.05.2019 03:00:00 10,4 5,3 5 3 N 1016,7 -
15.05.2019 02:00:00 10,7 5,8 9 5 N 1016,9 -
15.05.2019 01:00:00 11,0 5,3 13 7 NE 1017,3 -
15.05.2019 00:00:00 12,0 6,0 11 6 ENE 1017,5 -
14.05.2019 23:00:00 12,6 6,6 18 10 ENE 1017,7 -
14.05.2019 22:00:00 13,6 7,7 22 12 E 1017,3 -
14.05.2019 21:00:00 15,2 7,4 26 14 E 1016,5 -
14.05.2019 20:00:00 16,4 8,0 18 10 E 1015,7 -
14.05.2019 19:00:00 17,5 8,6 16 9 E 1014,9 -
14.05.2019 18:00:00 18,8 7,2 22 12 ENE 1014,6 -
14.05.2019 17:00:00 20,1 8,7 22 12 E 1014,7 -
14.05.2019 16:00:00 20,8 8,7 18 10 E 1015,1 -
14.05.2019 15:00:00 20,6 8,5 13 7 E 1015,3 -
14.05.2019 14:00:00 20,9 9,4 13 7 E 1015,4 -
14.05.2019 13:00:00 20,1 7,1 9 5 ENE 1016,1 -
14.05.2019 12:00:00 19,6 7,6 9 5 ESE 1016,5 -
14.05.2019 11:00:00 17,8 10,4 9 5 E 1017,3 -
14.05.2019 10:00:00 16,8 11,7 5 3 ENE 1017,5 -
14.05.2019 09:00:00 14,7 11,3 4 2 E 1018,0 -
14.05.2019 08:00:00 11,8 10,5 0 0 N 1018,3 -
14.05.2019 07:00:00 7,8 6,4 0 0 N 1018,6 -
14.05.2019 06:00:00 7,4 5,8 2 1 O 1018,9 -
14.05.2019 05:00:00 8,4 6,8 2 1 O 1019,3 -
14.05.2019 04:00:00 9,4 7,7 4 2 O 1019,7 -
14.05.2019 03:00:00 9,6 7,3 4 2 O 1020,0 -
14.05.2019 02:00:00 10,2 7,4 4 2 O 1020,6 -
14.05.2019 01:00:00 10,6 7,1 2 1 ONO 1020,9 -
14.05.2019 00:00:00 12,7 7,9 4 2 NNE 1020,9 -
13.05.2019 23:00:00 13,9 7,8 4 2 ENE 1020,7 -
13.05.2019 22:00:00 15,6 8,8 4 2 ESE 1020,6 -
13.05.2019 21:00:00 17,6 8,4 4 2 ENE 1019,9 -

tt = Temperatura
td = dewpoint
ff = velocità del vento
dd = direzione del vento
ppp = reduced air pressure
rr = precipitazioni

Stazioni seguenti

WeatherPro
AMSI
MeteoEarth